Temp
73 73 75 75 74 76 76 76 77 77 75 76 77 78 77 75 76 75 73 81 80 81 82 82 81 82 82 82 81 81 81 81 80 81 81 80 80 80 80 80 80 80 79
73 73 74 77 76 78 77 76 76 74 74 76 78 80 78 76 76 75 75 76 81 81 81 83 82 81 82 82 82 81 81 81 81 80 80 80 80 80 80 80 79 79 79
75 75 74 75 75 76 77 75 76 74 77 76 74 75 75 77 79 77 75 74 77 82 81 82 81 81 81 82 82 82 81 80 80 80 80 79 79 79 79 79 79 79 79
77 75 74 75 75 76 76 72 72 71 72 71 70 71 71 79 78 79 75 74 75 78 81 82 81 81 82 82 82 81 81 80 80 80 79 79 79 79 79 79 78 78 78
77 76 74 74 75 73 73 73 71 71 70 69 72 72 71 73 77 80 79 75 75 76 75 79 80 81 82 84 83 82 80 79 79 79 79 79 79 79 78 78 78 78 78
77 75 74 74 73 72 72 71 72 72 69 69 75 74 71 72 72 75 79 77 75 78 77 76 73 76 80 82 81 81 81 81 80 79 78 78 78 78 78 77 77 77 77
77 75 74 74 73 71 72 72 70 68 68 68 67 68 69 71 72 73 73 73 75 74 74 73 73 73 75 78 78 78 80 80 80 79 79 78 78 78 77 77 77 77 77
77 76 73 73 73 72 71 71 69 65 66 68 66 62 62 68 72 75 74 72 71 73 74 74 72 71 70 70 73 77 77 78 78 77 76 75 76 75 75 75 76 76 77
77 77 74 73 73 72 70 70 68 67 66 67 66 65 60 60 69 71 69 71 69 68 69 70 71 71 70 69 72 74 76 76 77 78 77 76 76 75 75 75 75 75 75
77 76 75 74 72 71 70 70 69 67 66 65 66 69 65 65 61 62 68 67 67 70 68 68 69 70 69 67 71 73 75 75 76 77 77 76 76 76 76 76 76 75 75
76 77 75 73 72 70 70 69 67 67 67 65 65 65 64 64 62 61 59 64 66 67 67 67 68 68 68 67 66 71 75 74 75 75 76 76 75 76 76 76 76 76 76
75 75 75 73 71 70 69 69 68 67 67 66 65 65 64 63 62 61 59 59 61 65 66 67 67 67 67 67 72 74 75 74 73 73 74 75 75 76 77 77 77 77 76
70 73 73 71 71 70 70 69 68 70 68 66 66 64 64 64 64 63 62 59 60 63 65 67 67 67 70 66 68 74 75 73 72 72 72 72 73 74 75 76 76 76 77
76 73 74 73 72 71 70 69 68 68 67 67 67 65 65 65 64 65 64 62 58 58 60 65 67 68 67 69 70 75 69 71 71 69 69 70 71 71 73 74 74 74 75
76 74 74 73 72 71 70 69 67 67 67 66 66 66 66 66 66 65 64 64 63 57 58 62 64 68 68 68 69 69 67 71 70 69 69 68 69 70 70 71 71 71 72
76 74 74 73 73 71 69 68 67 68 68 67 69 69 67 66 65 65 65 64 63 62 58 62 65 66 67 70 71 68 69 71 70 69 69 68 68 69 69 70 69 69 70
76 74 74 74 73 71 70 69 67 68 67 66 68 67 67 67 65 64 67 64 63 63 63 63 63 65 66 67 68 67 68 67 67 69 68 68 67 67 68 68 68 68 68
76 76 75 74 73 73 71 71 69 71 68 66 66 66 67 69 68 68 67 66 67 64 66 64 62 63 64 65 65 65 68 71 67 71 69 67 66 66 65 65 65 65 65
75 75 75 74 73 73 71 71 71 69 69 68 67 66 66 66 66 66 67 67 66 66 64 63 61 62 64 64 64 63 64 64 68 71 68 67 67 66 66 64 62 61 60
75 74 75 74 74 73 73 72 72 70 68 67 67 67 67 66 67 69 67 67 65 64 63 62 61 62 63 65 64 62 61 61 62 69 69 67 66 67 66 64 64 64 61
78 74 74 74 73 73 74 72 71 70 67 66 66 67 67 69 70 67 68 65 66 64 62 62 61 64 65 61 62 64 59 59 62 61 60 60 60 61 63 63 66 67 64
76 73 73 73 71 73 70 68 72 70 69 68 66 65 67 69 70 69 66 66 65 63 63 61 61 63 63 62 59 59 57 56 55 62 59 59 59 58 60 60 65 64 63
76 74 72 72 71 72 67 66 69 67 67 67 67 65 67 71 69 67 64 65 65 65 65 64 63 63 59 60 59 58 57 56 55 61 56 53 57 56 60 64 64 63 63
77 74 73 72 72 71 65 64 67 69 68 69 69 68 66 67 65 66 64 63 64 65 65 67 65 67 62 62 60 60 59 57 55 56 55 52 55 55 58 59 63 63 63
77 76 76 73 71 70 62 62 65 67 67 67 68 68 68 65 62 62 63 62 63 63 63 62 62 62 61 61 61 58 57 53 52 53 55 53 54 53 54 56 59 63 61
77 78 75 73 70 72 59 59 65 66 65 65 66 66 63 64 60 59 62 61 60 61 61 61 60 60 60 60 61 59 57 55 52 51 55 53 52 51 50 52 55 56 57
MSLP
1017.84 1017.97 1017.73 1017.84 1018.08 1017.97 1018.11 1018.02 1018.01 1018.13 1018.17 1018.04 1017.79 1017.68 1018.17 1018.30 1018.25 1018.21 1018.31 1018.25 1018.52 1018.69 1018.84 1019.07 1019.37 1019.61 1019.79 1019.95 1020.15 1020.42 1020.69 1020.93 1021.12 1021.19 1021.22 1021.38 1021.60 1021.70 1021.74 1021.78 1021.86 1021.90 1021.90
1017.55 1017.70 1017.67 1017.58 1017.73 1017.79 1017.98 1017.99 1018.06 1018.12 1018.08 1017.90 1017.77 1017.57 1017.53 1017.92 1018.05 1018.22 1018.32 1018.34 1018.39 1018.51 1018.70 1018.75 1019.07 1019.35 1019.47 1019.78 1019.94 1020.17 1020.33 1020.59 1020.93 1021.10 1021.19 1021.27 1021.43 1021.64 1021.77 1021.72 1021.73 1021.81 1021.88
1017.10 1017.19 1017.29 1017.38 1017.55 1017.62 1017.75 1017.92 1017.92 1018.03 1017.97 1017.92 1017.94 1017.74 1017.76 1017.54 1017.74 1017.85 1018.10 1018.27 1018.25 1018.27 1018.44 1018.74 1019.02 1019.12 1019.18 1019.38 1019.57 1019.88 1020.05 1020.38 1020.61 1020.91 1021.12 1021.22 1021.29 1021.35 1021.62 1021.70 1021.66 1021.62 1021.66
1016.84 1017.02 1017.26 1017.38 1017.38 1017.55 1017.70 1018.03 1018.15 1018.25 1018.17 1018.05 1018.16 1018.03 1017.91 1017.49 1017.41 1017.72 1017.90 1018.11 1018.24 1018.36 1018.44 1018.51 1018.76 1019.03 1019.23 1019.48 1019.70 1019.78 1019.90 1020.01 1020.38 1020.58 1020.78 1020.91 1021.05 1021.15 1021.27 1021.41 1021.50 1021.50 1021.52
1016.60 1016.92 1017.20 1017.28 1017.37 1017.65 1017.74 1017.97 1018.17 1018.27 1018.43 1018.41 1018.23 1017.98 1017.87 1017.58 1017.35 1017.43 1017.80 1017.99 1018.11 1018.34 1018.64 1018.72 1018.85 1019.03 1019.25 1019.34 1019.52 1019.58 1019.71 1019.89 1020.05 1020.28 1020.42 1020.57 1020.78 1020.93 1021.04 1021.19 1021.25 1021.35 1021.35
1016.42 1016.70 1016.91 1016.97 1017.28 1017.70 1017.93 1018.13 1018.30 1018.42 1018.51 1018.44 1018.22 1018.11 1018.03 1018.08 1017.77 1017.64 1017.91 1018.02 1018.02 1018.00 1018.41 1018.78 1019.02 1019.20 1019.21 1019.17 1019.29 1019.43 1019.44 1019.53 1019.66 1019.82 1020.07 1020.38 1020.44 1020.54 1020.73 1020.90 1021.05 1021.12 1021.17
1016.07 1016.34 1016.74 1016.92 1017.11 1017.54 1017.82 1018.18 1018.37 1018.52 1018.53 1018.54 1018.68 1018.51 1018.51 1018.34 1018.16 1018.09 1018.13 1018.15 1018.21 1018.46 1018.68 1018.87 1019.16 1019.25 1019.08 1019.16 1019.30 1019.28 1019.36 1019.41 1019.52 1019.71 1019.79 1019.96 1020.20 1020.15 1020.26 1020.41 1020.54 1020.67 1020.71
1015.78 1016.09 1016.51 1016.86 1017.09 1017.49 1017.80 1018.06 1018.17 1018.62 1018.67 1018.49 1018.97 1019.32 1019.31 1019.12 1018.77 1018.63 1018.64 1018.57 1018.77 1018.64 1018.80 1018.85 1019.07 1019.21 1019.30 1019.43 1019.48 1019.51 1019.55 1019.57 1019.62 1019.65 1019.82 1020.03 1019.91 1020.13 1020.17 1020.10 1020.12 1020.19 1020.22
1015.37 1015.77 1016.21 1016.49 1016.90 1017.14 1017.51 1017.81 1018.07 1018.42 1018.81 1018.73 1018.62 1018.95 1019.64 1019.67 1019.37 1019.19 1019.20 1018.90 1018.97 1019.12 1019.14 1019.11 1019.13 1019.26 1019.44 1019.50 1019.59 1019.57 1019.63 1019.73 1019.81 1019.87 1019.91 1020.02 1020.14 1020.25 1020.23 1020.14 1020.13 1020.08 1019.98
1015.13 1015.42 1015.89 1016.13 1016.38 1016.81 1017.32 1017.67 1018.04 1018.21 1018.40 1018.69 1018.57 1018.55 1018.73 1018.95 1019.59 1019.90 1019.52 1019.36 1019.21 1019.12 1019.33 1019.44 1019.46 1019.41 1019.54 1019.74 1019.78 1019.76 1019.74 1019.79 1019.82 1019.89 1019.99 1020.04 1020.06 1019.98 1019.96 1020.01 1019.94 1019.94 1020.02
1014.93 1015.14 1015.58 1015.91 1016.32 1016.65 1017.16 1017.58 1017.96 1018.15 1018.30 1018.67 1018.66 1018.54 1018.39 1018.80 1019.27 1019.80 1020.07 1019.77 1019.50 1019.26 1019.28 1019.30 1019.39 1019.43 1019.50 1019.59 1019.74 1019.78 1019.78 1019.81 1019.83 1019.91 1019.89 1019.92 1019.91 1019.87 1019.89 1019.83 1019.85 1019.87 1019.81
1014.78 1014.85 1015.28 1015.60 1016.01 1016.64 1017.07 1017.34 1017.71 1017.89 1018.10 1018.34 1018.54 1018.72 1018.86 1018.92 1019.16 1019.59 1020.13 1020.13 1019.90 1019.45 1019.29 1018.98 1019.25 1019.26 1019.33 1019.41 1019.44 1019.52 1019.56 1019.68 1019.75 1019.87 1019.84 1019.80 1019.79 1019.80 1019.77 1019.77 1019.74 1019.68 1019.69
1014.58 1014.76 1015.11 1015.58 1015.95 1016.25 1016.52 1016.86 1017.30 1017.78 1018.08 1018.34 1018.65 1018.94 1018.90 1018.93 1018.94 1019.20 1019.69 1020.13 1020.15 1019.71 1019.30 1018.96 1018.79 1018.96 1019.14 1019.23 1019.17 1019.21 1019.27 1019.43 1019.59 1019.59 1019.67 1019.70 1019.65 1019.63 1019.62 1019.64 1019.61 1019.56 1019.53
1013.72 1014.12 1014.65 1015.04 1015.33 1015.78 1016.18 1016.63 1017.26 1017.61 1017.95 1018.23 1018.43 1018.80 1018.98 1018.93 1018.89 1018.95 1019.15 1019.74 1020.31 1020.25 1019.95 1019.29 1018.64 1018.61 1018.69 1018.73 1018.75 1018.91 1019.18 1019.17 1019.30 1019.25 1019.36 1019.38 1019.37 1019.38 1019.34 1019.35 1019.39 1019.40 1019.37
1013.15 1013.68 1014.20 1014.71 1015.12 1015.41 1015.88 1016.55 1017.08 1017.59 1017.92 1018.05 1018.28 1018.53 1018.69 1018.61 1018.69 1018.67 1018.73 1019.02 1019.52 1020.39 1020.25 1019.42 1019.16 1018.53 1018.43 1018.58 1018.66 1018.84 1019.03 1018.88 1018.92 1018.95 1018.95 1018.99 1018.94 1018.91 1018.90 1018.89 1018.90 1018.95 1018.98
1012.78 1013.31 1013.82 1014.30 1014.81 1015.32 1015.68 1016.20 1016.67 1016.96 1017.20 1017.35 1017.72 1018.10 1018.37 1018.54 1018.71 1018.64 1018.52 1018.61 1019.02 1019.60 1019.98 1019.49 1019.14 1018.79 1018.46 1018.38 1018.37 1018.47 1018.53 1018.44 1018.55 1018.60 1018.57 1018.56 1018.53 1018.43 1018.39 1018.37 1018.33 1018.30 1018.29
1012.25 1012.72 1013.27 1013.82 1014.46 1014.88 1015.30 1015.71 1016.07 1016.38 1016.94 1017.20 1017.36 1017.67 1017.97 1018.15 1018.48 1018.75 1018.88 1019.10 1019.28 1019.35 1019.79 1019.56 1019.16 1018.77 1018.69 1018.73 1018.41 1018.37 1018.31 1018.39 1018.35 1018.17 1018.09 1018.08 1018.04 1018.03 1018.06 1017.94 1017.75 1017.60 1017.55
1011.46 1011.93 1012.55 1013.17 1013.75 1014.24 1014.69 1015.25 1015.62 1015.94 1016.13 1016.60 1016.93 1017.38 1017.62 1017.69 1017.91 1018.26 1018.61 1018.83 1019.11 1018.85 1019.04 1019.68 1019.41 1019.12 1018.99 1018.71 1018.36 1018.28 1018.02 1017.89 1017.92 1017.71 1017.60 1017.51 1017.52 1017.48 1017.51 1017.42 1017.25 1017.19 1017.00
1010.73 1011.34 1011.78 1012.41 1012.98 1013.66 1014.18 1014.60 1014.84 1015.12 1015.43 1016.00 1016.58 1017.08 1017.25 1017.58 1017.86 1017.94 1018.14 1018.52 1018.57 1019.03 1019.00 1019.36 1019.55 1019.20 1018.92 1018.47 1018.39 1018.43 1018.25 1017.98 1017.69 1017.53 1017.43 1017.26 1017.15 1017.17 1017.19 1017.15 1016.98 1016.78 1016.68
1009.98 1010.58 1011.02 1011.60 1012.31 1012.96 1013.41 1013.79 1014.15 1014.52 1015.12 1015.57 1015.93 1016.35 1016.74 1017.17 1017.41 1017.55 1017.82 1018.01 1018.43 1019.01 1019.31 1019.29 1019.60 1019.36 1019.05 1018.61 1018.55 1018.62 1018.51 1018.22 1017.86 1017.36 1017.01 1016.99 1017.05 1016.99 1016.87 1016.67 1016.50 1016.24 1016.14
1009.10 1009.77 1010.46 1011.06 1011.65 1012.19 1012.51 1012.98 1013.49 1013.99 1014.50 1014.97 1015.26 1015.68 1016.11 1016.35 1016.61 1016.98 1017.18 1017.66 1017.88 1018.45 1018.87 1019.10 1019.33 1019.32 1018.78 1018.67 1018.67 1018.43 1018.51 1018.24 1017.83 1017.49 1017.29 1017.20 1017.08 1016.89 1016.34 1016.07 1015.87 1015.59 1015.72
1008.26 1008.94 1009.61 1010.20 1010.88 1011.33 1011.64 1012.10 1012.59 1013.23 1013.75 1014.42 1015.00 1015.31 1015.61 1015.90 1016.12 1016.38 1016.45 1016.65 1017.10 1017.86 1018.24 1018.58 1019.01 1019.07 1018.67 1018.33 1018.26 1018.38 1018.39 1018.36 1018.11 1016.97 1017.33 1017.31 1017.07 1017.02 1016.54 1016.13 1015.91 1015.72 1015.43
1007.46 1008.12 1008.88 1009.52 1010.13 1010.45 1010.77 1011.34 1012.05 1012.66 1013.32 1013.87 1014.29 1014.82 1015.24 1015.44 1015.65 1015.98 1016.29 1016.53 1016.78 1017.05 1017.29 1017.71 1017.95 1018.04 1018.09 1017.87 1017.70 1017.70 1017.64 1017.66 1017.60 1016.86 1016.93 1016.98 1016.58 1016.50 1015.82 1015.51 1015.27 1015.07 1014.73
1006.48 1007.23 1008.02 1008.64 1009.28 1009.68 1010.11 1010.76 1011.63 1012.23 1013.09 1013.45 1013.77 1014.11 1014.59 1014.88 1015.17 1015.61 1016.08 1016.39 1016.59 1016.63 1016.50 1016.58 1016.76 1016.76 1016.99 1017.02 1017.17 1016.98 1016.96 1017.12 1017.04 1016.68 1016.91 1017.04 1016.18 1016.13 1015.29 1014.93 1014.53 1014.18 1013.92
1005.75 1006.31 1006.84 1007.80 1008.43 1009.07 1009.43 1010.11 1011.19 1011.90 1012.49 1012.90 1013.16 1013.58 1013.95 1014.33 1014.85 1015.34 1015.94 1016.40 1016.40 1016.27 1016.07 1016.16 1016.26 1016.26 1016.36 1016.38 1016.42 1016.73 1016.71 1017.13 1017.19 1016.61 1016.25 1016.50 1016.04 1015.59 1015.03 1014.51 1013.91 1013.53 1013.31
1004.61 1005.44 1006.21 1006.92 1007.54 1008.24 1008.93 1009.70 1010.44 1011.39 1012.15 1012.59 1012.88 1013.09 1013.40 1013.78 1014.35 1014.89 1015.73 1015.97 1016.09 1015.82 1016.04 1016.12 1016.02 1015.97 1015.86 1015.72 1015.71 1016.13 1016.22 1016.56 1016.70 1016.59 1015.62 1016.08 1015.62 1015.51 1015.12 1014.09 1013.58 1013.15 1012.89
Wind_Speed
4 3 3 3 3 2 3 3 2 1 1 2 1 1 6 6 6 3 3 12 11 12 12 13 16 16 15 15 13 13 12 12 11 11 12 11 10 9 9 8 8 8 5
5 4 3 3 2 3 3 3 2 1 2 2 3 4 3 5 7 5 4 5 13 12 12 11 14 14 16 15 15 15 14 14 13 12 11 11 11 10 10 9 8 7 6
5 5 3 1 1 3 4 2 2 2 3 2 3 4 3 4 6 7 5 4 4 9 11 11 9 10 12 15 16 16 16 13 13 12 10 10 10 9 10 10 10 10 8
6 4 3 2 2 3 3 1 2 2 1 3 2 3 1 4 5 5 4 4 3 2 5 8 9 9 10 11 12 14 14 13 14 13 12 11 12 11 11 11 11 10 10
6 5 3 3 3 3 2 1 1 2 1 2 2 2 3 1 2 1 6 5 7 5 3 4 6 7 8 8 8 10 12 12 14 14 13 13 13 12 12 11 11 11 11
7 5 4 4 5 4 3 1 1 1 1 1 2 3 3 2 2 3 6 2 1 5 5 3 2 1 5 4 5 6 7 9 11 14 14 13 13 12 12 12 11 12 12
7 6 4 4 4 4 4 3 2 1 2 2 2 3 3 3 3 4 4 3 5 5 5 4 3 2 3 8 7 5 3 1 6 8 9 10 11 11 11 12 13 13 12
7 6 6 5 5 4 5 4 3 1 1 0 3 2 3 4 4 3 3 5 6 5 4 5 6 5 4 3 5 8 8 8 8 9 6 5 4 2 5 7 11 12 12
7 6 6 5 5 5 5 4 4 4 2 2 1 4 2 2 0 2 2 2 5 3 3 4 5 5 5 4 5 6 8 7 6 6 6 6 5 4 3 4 5 5 6
7 7 7 6 6 4 6 5 4 3 4 2 1 2 2 4 3 0 2 2 2 4 4 2 4 5 5 4 6 7 8 7 7 7 5 4 3 4 4 5 5 6 7
7 7 7 7 6 5 5 6 5 4 3 3 3 3 3 2 2 3 2 3 2 2 2 3 4 4 5 5 5 6 9 8 6 5 5 4 2 1 1 3 3 4 4
7 7 7 7 6 6 6 6 5 6 5 2 0 1 1 2 3 3 2 1 2 3 3 3 5 5 5 5 8 12 12 10 9 8 7 6 6 6 5 5 6 6 6
3 7 7 7 6 6 7 6 6 5 4 3 3 1 1 0 2 3 3 1 1 2 2 3 4 4 5 4 6 12 13 12 11 11 11 10 10 10 9 8 9 10 9
9 8 10 9 8 8 7 6 4 4 5 4 4 3 2 2 1 3 4 4 0 2 2 5 1 4 4 6 9 14 6 11 12 12 11 12 12 11 12 11 12 12 12
6 10 11 10 9 8 8 7 5 5 4 4 4 3 3 3 2 2 3 3 5 2 3 3 2 2 2 4 6 6 6 10 13 12 12 13 13 13 14 13 13 12 13
8 9 11 11 10 8 8 8 6 5 7 5 4 5 4 1 2 2 2 3 3 4 2 4 3 2 2 2 6 6 7 11 10 12 12 13 14 14 14 14 14 15 15
11 11 13 12 11 10 9 9 8 7 6 6 5 6 7 4 4 3 1 2 0 2 2 3 2 2 2 3 4 3 5 5 5 11 12 13 13 14 13 14 15 16 17
12 13 13 13 12 12 11 11 11 9 10 8 7 6 7 3 5 4 3 3 3 3 4 3 1 2 4 5 4 4 3 4 4 6 9 8 8 8 10 13 13 14 15
11 12 13 14 14 13 12 11 12 10 10 8 7 7 7 6 4 3 4 4 4 1 2 2 3 1 2 2 3 3 3 3 3 6 9 9 5 4 7 7 8 8 10
11 11 13 13 13 13 13 13 12 11 8 7 7 8 7 7 7 6 4 4 2 1 1 2 2 3 2 3 1 2 3 1 3 3 4 5 5 4 7 7 8 9 10
12 12 11 11 12 12 11 13 13 11 10 8 8 7 7 8 11 8 5 5 4 3 2 1 2 5 5 3 4 2 2 2 3 3 2 3 3 4 7 8 9 12 12
13 11 12 13 12 11 15 17 15 11 11 10 8 6 6 8 10 11 10 11 9 6 4 3 3 9 9 5 3 4 3 2 3 3 3 3 3 4 5 4 12 14 13
13 12 12 12 13 14 16 18 16 8 9 8 8 7 6 5 8 6 7 10 10 11 8 6 10 8 7 6 3 3 4 3 4 5 3 3 2 4 5 6 12 13 14
15 12 12 14 13 12 16 15 18 9 7 9 11 9 8 7 7 8 6 7 8 9 11 9 9 12 8 7 6 4 3 3 2 4 4 4 2 4 4 5 12 13 13
14 13 13 14 14 11 17 17 14 8 6 7 7 6 7 7 7 7 6 7 6 7 6 10 10 11 10 10 7 2 4 2 3 4 3 3 4 4 3 4 6 13 14
15 11 12 12 14 12 14 17 14 7 7 5 5 6 9 8 11 8 7 6 6 7 5 5 3 4 5 5 5 6 3 4 3 2 4 4 2 2 4 4 4 5 5
Wind_Direction
201 203 204 187 208 227 190 201 203 194 309 297 325 96 155 191 199 206 214 200 214 216 204 197 195 191 196 191 194 192 196 202 202 202 206 202 196 209 215 219 219 218 229
179 192 188 184 221 215 167 148 188 119 299 330 330 302 254 151 191 175 201 207 196 208 215 210 200 195 194 198 202 204 200 201 207 220 214 209 202 205 224 236 237 239 241
182 178 166 129 181 178 138 155 90 39 3 347 330 340 349 263 172 191 189 193 210 207 204 199 202 201 205 205 204 211 210 205 207 217 219 216 212 214 227 233 240 241 245
184 183 160 162 132 118 123 135 86 62 32 28 12 310 296 235 185 158 183 191 208 197 212 195 201 199 212 220 218 220 219 212 215 212 215 219 223 226 229 232 237 242 250
180 175 173 192 155 151 132 139 96 135 40 344 296 7 342 25 160 194 124 151 191 190 170 226 203 201 208 224 231 230 230 232 216 217 218 218 224 229 236 240 235 239 246
182 179 180 196 162 147 144 149 131 12 157 277 317 359 322 52 105 150 101 128 138 144 151 148 107 209 195 209 220 232 240 238 225 227 224 225 227 229 238 244 243 241 244
185 183 176 164 164 162 177 151 120 66 318 33 38 346 5 41 63 113 112 90 89 75 110 118 134 116 88 91 91 89 71 279 256 244 241 240 245 240 239 239 239 238 239
188 177 179 194 170 143 148 157 142 130 295 142 141 102 23 1 28 48 47 102 113 123 143 138 136 138 116 114 117 109 100 89 79 71 63 48 351 340 329 289 250 247 245
175 166 186 183 181 162 168 172 150 143 136 322 118 138 87 192 316 8 23 78 139 139 144 146 160 138 146 139 116 122 124 115 104 90 83 73 51 27 353 360 343 348 326
177 175 177 175 163 163 159 169 151 166 133 168 5 61 54 142 151 57 338 324 306 157 169 183 151 174 153 150 167 169 149 137 129 120 103 81 63 39 20 4 9 359 350
179 181 178 169 167 156 156 159 164 160 156 144 184 186 162 108 99 125 199 293 316 253 223 195 183 185 181 177 184 185 175 170 166 158 158 161 176 198 315 329 341 346 335
187 189 179 169 164 152 161 177 173 173 170 181 343 347 104 154 166 128 108 269 225 286 217 224 199 201 194 192 198 194 187 188 186 198 208 215 230 245 264 282 293 302 309
170 193 170 170 170 169 172 165 174 173 172 174 163 226 343 212 125 123 117 175 173 307 314 252 223 194 202 214 208 199 200 199 206 210 218 223 230 239 247 264 271 274 272
190 177 177 177 174 170 172 172 169 176 169 195 201 158 189 205 172 173 164 144 38 332 335 256 292 228 205 205 213 204 215 210 221 221 226 234 240 240 240 242 252 259 262
178 175 174 176 180 176 169 168 171 180 176 206 216 189 216 204 216 177 169 147 152 193 273 302 306 306 221 191 211 200 214 228 231 231 228 234 241 241 244 240 241 244 244
189 175 178 182 183 174 171 168 175 183 190 201 199 197 223 214 213 212 179 171 157 155 199 199 247 267 270 201 216 202 220 227 239 240 239 238 243 247 249 252 246 245 241
193 180 186 182 184 181 180 179 187 191 195 209 206 197 229 192 209 229 257 29 263 131 179 297 255 269 262 248 277 258 248 249 263 255 245 245 247 254 259 256 254 249 247
191 187 184 186 187 190 185 188 195 198 199 202 208 196 221 220 214 212 194 205 219 197 143 245 289 292 232 248 245 275 261 237 247 275 279 262 264 278 271 265 267 264 260
187 185 185 187 189 187 191 196 200 198 198 202 189 201 212 205 227 199 188 213 196 240 161 168 282 290 276 324 345 302 292 304 296 272 273 283 311 325 321 312 291 272 256
191 189 189 187 188 190 195 198 201 203 189 193 188 199 202 201 209 212 213 233 145 323 2 62 298 269 242 290 262 261 306 294 291 299 317 298 346 324 301 286 282 275 266
197 189 185 188 186 191 198 198 203 202 189 189 195 199 202 205 208 194 193 183 172 190 155 102 329 291 281 260 225 229 244 267 289 249 277 303 320 313 305 310 300 288 270
198 176 185 185 182 195 202 198 199 197 192 193 200 201 213 216 220 218 172 171 166 169 178 137 256 263 272 244 198 211 218 220 287 236 173 264 172 275 276 279 268 271 276
186 188 181 182 192 202 199 197 195 178 176 189 194 188 207 215 206 176 167 158 174 186 176 186 235 240 259 230 211 236 231 205 226 268 122 272 224 263 260 265 264 269 271
196 186 186 190 195 204 194 184 180 178 191 201 199 196 201 203 183 163 179 174 191 201 211 217 225 249 235 253 208 219 241 239 288 280 145 243 265 249 259 256 262 264 277
193 192 195 188 192 196 190 174 163 173 181 203 194 194 199 194 193 180 177 208 227 242 256 235 235 243 248 257 241 170 249 182 278 263 233 189 247 247 237 258 261 261 261
195 189 188 187 188 192 175 164 164 163 166 175 185 199 200 192 177 186 207 202 226 240 202 259 244 260 254 265 265 207 199 219 226 305 256 184 269 244 297 247 245 255 255